Time,TemperatureF,DewpointF,PressureIn,WindDirection,WindDirectionDegrees,WindSpeedMPH,WindSpeedGustMPH,Humidity,HourlyPrecipIn,Conditions,Clouds,dailyrainin,SoftwareType,DateUTC
2013-02-01 00:03:00,16.0,7.0,-100.00,SW,225,18.0,24.0,66,-99.99,,,-99.99,,2013-02-01 05:03:00,
2013-02-01 00:12:00,16.0,7.0,-100.00,SW,220,17.0,24.0,68,-99.99,,,-99.99,,2013-02-01 05:12:00,
2013-02-01 00:22:00,16.0,8.0,-100.00,SW,220,14.0,24.0,70,-99.99,,,-99.99,,2013-02-01 05:22:00,
2013-02-01 00:32:00,16.0,8.0,-100.00,SW,220,16.0,26.0,71,-99.99,,,-99.99,,2013-02-01 05:32:00,
2013-02-01 00:42:00,16.0,9.0,-100.00,SW,215,18.0,26.0,72,-99.99,,,-99.99,,2013-02-01 05:42:00,
2013-02-01 00:52:00,16.0,8.0,-100.00,SW,215,22.0,29.0,69,-99.99,,,-99.99,,2013-02-01 05:52:00,
2013-02-01 01:02:00,16.0,8.0,-100.00,SW,220,23.0,27.0,70,-99.99,,,-99.99,,2013-02-01 06:02:00,
2013-02-01 01:11:00,16.0,9.0,-100.00,SW,220,17.0,27.0,73,-99.99,,,-99.99,,2013-02-01 06:11:00,
2013-02-01 01:22:00,16.0,9.0,-100.00,SW,220,17.0,27.0,73,-99.99,,,-99.99,,2013-02-01 06:22:00,
2013-02-01 01:32:00,15.0,8.0,-100.00,SW,215,23.0,28.0,73,-99.99,,,-99.99,,2013-02-01 06:32:00,
2013-02-01 01:42:00,15.0,8.0,-100.00,SW,215,23.0,28.0,73,-99.99,,,-99.99,,2013-02-01 06:42:00,
2013-02-01 01:52:00,15.0,9.0,-100.00,SSW,210,17.0,26.0,78,-99.99,,,-99.99,,2013-02-01 06:52:00,
2013-02-01 02:02:00,15.0,9.0,-100.00,SW,220,19.0,27.0,78,-99.99,,,-99.99,,2013-02-01 07:02:00,
2013-02-01 02:12:00,15.0,9.0,-100.00,SW,215,19.0,27.0,77,-99.99,,,-99.99,,2013-02-01 07:12:00,
2013-02-01 02:22:00,14.0,8.0,-100.00,SW,215,21.0,27.0,75,-99.99,,,-99.99,,2013-02-01 07:22:00,
2013-02-01 02:32:00,14.0,7.0,-100.00,SW,220,21.0,30.0,74,-99.99,,,-99.99,,2013-02-01 07:32:00,
2013-02-01 02:42:00,14.0,7.0,-100.00,SW,220,22.0,28.0,74,-99.99,,,-99.99,,2013-02-01 07:42:00,
2013-02-01 02:51:00,14.0,7.0,-100.00,SSW,210,24.0,29.0,73,-99.99,,,-99.99,,2013-02-01 07:51:00,
2013-02-01 03:01:00,13.0,7.0,-100.00,SW,220,23.0,29.0,74,-99.99,,,-99.99,,2013-02-01 08:01:00,
2013-02-01 03:11:00,13.0,7.0,-100.00,SSW,210,19.0,27.0,75,-99.99,,,-99.99,,2013-02-01 08:11:00,
2013-02-01 03:21:00,13.0,7.0,-100.00,SSW,210,19.0,27.0,75,-99.99,,,-99.99,,2013-02-01 08:21:00,
2013-02-01 03:32:00,13.0,6.0,-100.00,SW,215,21.0,31.0,73,-99.99,,,-99.99,,2013-02-01 08:32:00,
2013-02-01 03:42:00,13.0,6.0,-100.00,SSW,210,21.0,30.0,72,-99.99,,,-99.99,,2013-02-01 08:42:00,
2013-02-01 03:52:00,13.0,6.0,-100.00,SSW,210,19.0,29.0,72,-99.99,,,-99.99,,2013-02-01 08:52:00,
2013-02-01 04:02:00,12.0,5.0,-100.00,SSW,210,22.0,27.0,71,-99.99,,,-99.99,,2013-02-01 09:02:00,
2013-02-01 04:11:00,12.0,4.0,-100.00,SSW,210,25.0,31.0,69,-99.99,,,-99.99,,2013-02-01 09:11:00,
2013-02-01 04:21:00,12.0,4.0,-100.00,SSW,210,24.0,30.0,69,-99.99,,,-99.99,,2013-02-01 09:21:00,
2013-02-01 04:32:00,12.0,4.0,-100.00,SSW,210,21.0,28.0,70,-99.99,,,-99.99,,2013-02-01 09:32:00,
2013-02-01 04:42:00,11.0,3.0,-100.00,SSW,210,25.0,34.0,69,-99.99,,,-99.99,,2013-02-01 09:42:00,
2013-02-01 04:51:00,11.0,4.0,-100.00,SSW,210,21.0,28.0,70,-99.99,,,-99.99,,2013-02-01 09:51:00,
2013-02-01 05:01:00,11.0,4.0,-100.00,SW,215,17.0,28.0,71,-99.99,,,-99.99,,2013-02-01 10:01:00,
2013-02-01 05:11:00,11.0,4.0,-100.00,SW,215,21.0,29.0,70,-99.99,,,-99.99,,2013-02-01 10:11:00,
2013-02-01 05:21:00,11.0,4.0,-100.00,SW,215,18.0,29.0,70,-99.99,,,-99.99,,2013-02-01 10:21:00,
2013-02-01 05:32:00,11.0,4.0,-100.00,SW,215,18.0,29.0,70,-99.99,,,-99.99,,2013-02-01 10:32:00,
2013-02-01 05:42:00,11.0,3.0,-100.00,SSW,205,21.0,29.0,70,-99.99,,,-99.99,,2013-02-01 10:42:00,
2013-02-01 05:52:00,11.0,3.0,-100.00,SSW,205,21.0,29.0,70,-99.99,,,-99.99,,2013-02-01 10:52:00,
2013-02-01 06:02:00,10.0,3.0,-100.00,SSW,200,18.0,27.0,71,-99.99,,,-99.99,,2013-02-01 11:02:00,
2013-02-01 06:11:00,10.0,3.0,-100.00,SSW,200,18.0,25.0,70,-99.99,,,-99.99,,2013-02-01 11:11:00,
2013-02-01 06:22:00,10.0,3.0,-100.00,SSW,205,17.0,26.0,71,-99.99,,,-99.99,,2013-02-01 11:22:00,
2013-02-01 06:32:00,10.0,2.0,-100.00,SSW,200,21.0,26.0,71,-99.99,,,-99.99,,2013-02-01 11:32:00,
2013-02-01 06:42:00,10.0,2.0,-100.00,SSW,210,20.0,27.0,70,-99.99,,,-99.99,,2013-02-01 11:42:00,
2013-02-01 06:53:00,9.0,2.0,-100.00,SSW,205,21.0,27.0,70,-99.99,,,-99.99,,2013-02-01 11:53:00,
2013-02-01 07:03:00,10.0,2.0,-100.00,SSW,205,17.0,27.0,71,-99.99,,,-99.99,,2013-02-01 12:03:00,
2013-02-01 07:12:00,10.0,2.0,-100.00,SSW,205,17.0,27.0,71,-99.99,,,-99.99,,2013-02-01 12:12:00,
2013-02-01 07:22:00,9.0,2.0,-100.00,SSW,210,17.0,25.0,71,-99.99,,,-99.99,,2013-02-01 12:22:00,
2013-02-01 07:32:00,9.0,2.0,-100.00,SW,215,19.0,27.0,71,-99.99,,,-99.99,,2013-02-01 12:32:00,
2013-02-01 07:42:00,9.0,2.0,-100.00,SSW,205,18.0,24.0,71,-99.99,,,-99.99,,2013-02-01 12:42:00,
2013-02-01 07:52:00,9.0,1.0,-100.00,SSW,205,18.0,24.0,71,-99.99,,,-99.99,,2013-02-01 12:52:00,
2013-02-01 08:02:00,9.0,1.0,-100.00,SSW,200,16.0,25.0,71,-99.99,,,-99.99,,2013-02-01 13:02:00,
2013-02-01 08:11:00,8.0,1.0,-100.00,SSW,205,19.0,23.0,71,-99.99,,,-99.99,,2013-02-01 13:11:00,
2013-02-01 08:22:00,8.0,1.0,-100.00,SSW,205,19.0,26.0,71,-99.99,,,-99.99,,2013-02-01 13:22:00,
2013-02-01 08:33:00,9.0,1.0,-100.00,SSW,200,17.0,25.0,71,-99.99,,,-99.99,,2013-02-01 13:33:00,
2013-02-01 08:42:00,9.0,1.0,-100.00,SSW,200,17.0,24.0,70,-99.99,,,-99.99,,2013-02-01 13:42:00,
2013-02-01 08:52:00,9.0,1.0,-100.00,SSW,200,17.0,24.0,70,-99.99,,,-99.99,,2013-02-01 13:52:00,
2013-02-01 09:03:00,9.0,1.0,-100.00,SSW,210,20.0,24.0,69,-99.99,,,-99.99,,2013-02-01 14:03:00,
2013-02-01 09:11:00,10.0,2.0,-100.00,SSW,200,17.0,22.0,68,-99.99,,,-99.99,,2013-02-01 14:11:00,
2013-02-01 09:22:00,10.0,2.0,-100.00,SSW,200,18.0,24.0,68,-99.99,,,-99.99,,2013-02-01 14:22:00,
2013-02-01 09:32:00,10.0,2.0,-100.00,SSW,200,19.0,26.0,68,-99.99,,,-99.99,,2013-02-01 14:32:00,
2013-02-01 09:42:00,11.0,2.0,-100.00,SSW,210,17.0,25.0,67,-99.99,,,-99.99,,2013-02-01 14:42:00,
2013-02-01 09:52:00,11.0,2.0,-100.00,SSW,205,16.0,21.0,66,-99.99,,,-99.99,,2013-02-01 14:52:00,
2013-02-01 10:02:00,11.0,2.0,-100.00,SSW,210,20.0,25.0,65,-99.99,,,-99.99,,2013-02-01 15:02:00,
2013-02-01 10:12:00,11.0,2.0,-100.00,SSW,200,19.0,24.0,66,-99.99,,,-99.99,,2013-02-01 15:12:00,
2013-02-01 10:22:00,12.0,2.0,-100.00,SSW,210,19.0,25.0,65,-99.99,,,-99.99,,2013-02-01 15:22:00,
2013-02-01 10:33:00,12.0,2.0,-100.00,SSW,210,19.0,25.0,65,-99.99,,,-99.99,,2013-02-01 15:33:00,
2013-02-01 10:42:00,12.0,3.0,-100.00,SSW,210,19.0,24.0,64,-99.99,,,-99.99,,2013-02-01 15:42:00,
2013-02-01 10:52:00,13.0,3.0,-100.00,SSW,200,17.0,24.0,65,-99.99,,,-99.99,,2013-02-01 15:52:00,
2013-02-01 11:03:00,13.0,3.0,-100.00,SSW,200,18.0,21.0,63,-99.99,,,-99.99,,2013-02-01 16:03:00,
2013-02-01 11:12:00,14.0,4.0,-100.00,SSW,205,15.0,20.0,64,-99.99,,,-99.99,,2013-02-01 16:12:00,
2013-02-01 11:22:00,14.0,4.0,-100.00,SSW,205,16.0,24.0,64,-99.99,,,-99.99,,2013-02-01 16:22:00,
2013-02-01 11:33:00,14.0,4.0,-100.00,SSW,200,15.0,24.0,63,-99.99,,,-99.99,,2013-02-01 16:33:00,
2013-02-01 11:43:00,13.0,3.0,-100.00,SSW,200,17.0,22.0,63,-99.99,,,-99.99,,2013-02-01 16:43:00,
2013-02-01 11:52:00,15.0,4.0,-100.00,SSW,195,19.0,24.0,63,-99.99,,,-99.99,,2013-02-01 16:52:00,
2013-02-01 12:03:00,15.0,6.0,-100.00,SSW,200,17.0,23.0,65,-99.99,,,-99.99,,2013-02-01 17:03:00,
2013-02-01 12:12:00,15.0,5.0,-100.00,SW,215,16.0,22.0,63,-99.99,,,-99.99,,2013-02-01 17:12:00,
2013-02-01 12:22:00,14.0,5.0,-100.00,SSW,200,16.0,23.0,64,-99.99,,,-99.99,,2013-02-01 17:22:00,
2013-02-01 12:32:00,16.0,6.0,-100.00,SSW,200,17.0,24.0,63,-99.99,,,-99.99,,2013-02-01 17:32:00,
2013-02-01 12:42:00,15.0,5.0,-100.00,SW,215,17.0,22.0,62,-99.99,,,-99.99,,2013-02-01 17:42:00,
2013-02-01 12:52:00,16.0,6.0,-100.00,SSW,195,18.0,25.0,64,-99.99,,,-99.99,,2013-02-01 17:52:00,
2013-02-01 13:03:00,15.0,6.0,-100.00,SSW,200,17.0,22.0,64,-99.99,,,-99.99,,2013-02-01 18:03:00,
2013-02-01 13:12:00,16.0,7.0,-100.00,SSW,195,17.0,24.0,65,-99.99,,,-99.99,,2013-02-01 18:12:00,
2013-02-01 13:22:00,17.0,7.0,-100.00,SSW,195,17.0,23.0,65,-99.99,,,-99.99,,2013-02-01 18:22:00,
2013-02-01 13:32:00,17.0,7.0,-100.00,SSW,195,17.0,23.0,65,-99.99,,,-99.99,,2013-02-01 18:32:00,
2013-02-01 13:42:00,17.0,7.0,-100.00,South,190,20.0,24.0,64,-99.99,,,-99.99,,2013-02-01 18:42:00,
2013-02-01 13:52:00,17.0,7.0,-100.00,SSW,200,16.0,24.0,65,-99.99,,,-99.99,,2013-02-01 18:52:00,
2013-02-01 14:03:00,18.0,7.0,-100.00,SSW,205,16.0,21.0,60,-99.99,,,-99.99,,2013-02-01 19:03:00,
2013-02-01 14:12:00,18.0,8.0,-100.00,SSW,200,15.0,24.0,64,-99.99,,,-99.99,,2013-02-01 19:12:00,
2013-02-01 14:21:00,17.0,7.0,-100.00,SSW,200,16.0,22.0,64,-99.99,,,-99.99,,2013-02-01 19:21:00,
2013-02-01 14:32:00,16.0,6.0,-100.00,South,185,20.0,24.0,63,-99.99,,,-99.99,,2013-02-01 19:32:00,
2013-02-01 14:42:00,17.0,7.0,-100.00,South,190,14.0,23.0,65,-99.99,,,-99.99,,2013-02-01 19:42:00,
2013-02-01 14:51:00,17.0,7.0,-100.00,SSW,200,19.0,23.0,64,-99.99,,,-99.99,,2013-02-01 19:51:00,
2013-02-01 15:02:00,18.0,7.0,-100.00,South,190,17.0,24.0,63,-99.99,,,-99.99,,2013-02-01 20:02:00,
2013-02-01 15:11:00,18.0,7.0,-100.00,South,190,17.0,24.0,63,-99.99,,,-99.99,,2013-02-01 20:11:00,
2013-02-01 15:21:00,17.0,6.0,-100.00,SSW,195,17.0,21.0,62,-99.99,,,-99.99,,2013-02-01 20:21:00,
2013-02-01 15:32:00,16.0,4.0,-100.00,SSW,205,14.0,19.0,59,-99.99,,,-99.99,,2013-02-01 20:32:00,
2013-02-01 15:42:00,16.0,5.0,-100.00,SSW,200,16.0,24.0,60,-99.99,,,-99.99,,2013-02-01 20:42:00,
2013-02-01 15:52:00,16.0,5.0,-100.00,SSW,195,17.0,23.0,61,-99.99,,,-99.99,,2013-02-01 20:52:00,
2013-02-01 16:02:00,15.0,5.0,-100.00,SSW,200,14.0,19.0,63,-99.99,,,-99.99,,2013-02-01 21:02:00,
2013-02-01 16:12:00,15.0,4.0,-100.00,SSW,195,17.0,21.0,61,-99.99,,,-99.99,,2013-02-01 21:12:00,
2013-02-01 16:21:00,15.0,4.0,-100.00,SSW,205,16.0,22.0,61,-99.99,,,-99.99,,2013-02-01 21:21:00,
2013-02-01 16:32:00,15.0,4.0,-100.00,SSW,205,16.0,22.0,61,-99.99,,,-99.99,,2013-02-01 21:32:00,
2013-02-01 16:42:00,16.0,4.0,-100.00,South,175,18.0,22.0,60,-99.99,,,-99.99,,2013-02-01 21:42:00,
2013-02-01 16:52:00,16.0,4.0,-100.00,South,175,18.0,22.0,60,-99.99,,,-99.99,,2013-02-01 21:52:00,
2013-02-01 17:02:00,15.0,4.0,-100.00,South,185,16.0,21.0,62,-99.99,,,-99.99,,2013-02-01 22:02:00,
2013-02-01 17:11:00,15.0,5.0,-100.00,SSW,195,16.0,21.0,64,-99.99,,,-99.99,,2013-02-01 22:11:00,
2013-02-01 17:21:00,14.0,4.0,-100.00,South,185,16.0,23.0,64,-99.99,,,-99.99,,2013-02-01 22:21:00,
2013-02-01 17:32:00,14.0,4.0,-100.00,SSW,200,17.0,21.0,64,-99.99,,,-99.99,,2013-02-01 22:32:00,
2013-02-01 17:42:00,14.0,5.0,-100.00,SSW,200,13.0,20.0,66,-99.99,,,-99.99,,2013-02-01 22:42:00,
2013-02-01 17:51:00,14.0,4.0,-100.00,SSW,205,16.0,20.0,65,-99.99,,,-99.99,,2013-02-01 22:51:00,
2013-02-01 18:02:00,14.0,5.0,-100.00,South,190,15.0,24.0,65,-99.99,,,-99.99,,2013-02-01 23:02:00,
2013-02-01 18:11:00,14.0,5.0,-100.00,South,190,15.0,24.0,65,-99.99,,,-99.99,,2013-02-01 23:11:00,
2013-02-01 18:21:00,14.0,4.0,-100.00,South,190,17.0,22.0,65,-99.99,,,-99.99,,2013-02-01 23:21:00,
2013-02-01 18:32:00,14.0,4.0,-100.00,South,185,16.0,19.0,65,-99.99,,,-99.99,,2013-02-01 23:32:00,
2013-02-01 18:42:00,14.0,4.0,-100.00,South,190,16.0,21.0,65,-99.99,,,-99.99,,2013-02-01 23:42:00,
2013-02-01 18:52:00,14.0,4.0,-100.00,SSW,195,13.0,19.0,65,-99.99,,,-99.99,,2013-02-01 23:52:00,
2013-02-01 19:02:00,14.0,4.0,-100.00,SSW,195,15.0,19.0,65,-99.99,,,-99.99,,2013-02-02 00:02:00,
2013-02-01 19:11:00,14.0,5.0,-100.00,SSW,195,14.0,19.0,67,-99.99,,,-99.99,,2013-02-02 00:11:00,
2013-02-01 19:21:00,14.0,4.0,-100.00,SSW,195,17.0,21.0,65,-99.99,,,-99.99,,2013-02-02 00:21:00,
2013-02-01 19:32:00,14.0,4.0,-100.00,SSW,200,16.0,20.0,64,-99.99,,,-99.99,,2013-02-02 00:32:00,
2013-02-01 19:42:00,14.0,5.0,-100.00,SSW,195,14.0,21.0,66,-99.99,,,-99.99,,2013-02-02 00:42:00,
2013-02-01 19:52:00,14.0,4.0,-100.00,SSW,200,17.0,22.0,63,-99.99,,,-99.99,,2013-02-02 00:52:00,
2013-02-01 20:02:00,14.0,5.0,-100.00,South,190,16.0,21.0,65,-99.99,,,-99.99,,2013-02-02 01:02:00,
2013-02-01 20:11:00,14.0,5.0,-100.00,SSW,205,14.0,19.0,67,-99.99,,,-99.99,,2013-02-02 01:11:00,
2013-02-01 20:21:00,14.0,5.0,-100.00,South,190,12.0,19.0,66,-99.99,,,-99.99,,2013-02-02 01:21:00,
2013-02-01 20:32:00,14.0,4.0,-100.00,South,185,16.0,20.0,64,-99.99,,,-99.99,,2013-02-02 01:32:00,
2013-02-01 20:42:00,14.0,4.0,-100.00,SSW,205,17.0,22.0,64,-99.99,,,-99.99,,2013-02-02 01:42:00,
2013-02-01 20:52:00,14.0,5.0,-100.00,South,190,14.0,23.0,65,-99.99,,,-99.99,,2013-02-02 01:52:00,
2013-02-01 21:01:00,14.0,5.0,-100.00,South,190,14.0,18.0,66,-99.99,,,-99.99,,2013-02-02 02:01:00,
2013-02-01 21:11:00,14.0,6.0,-100.00,SSW,200,14.0,19.0,68,-99.99,,,-99.99,,2013-02-02 02:11:00,
2013-02-01 21:21:00,14.0,4.0,-100.00,SSW,195,13.0,19.0,64,-99.99,,,-99.99,,2013-02-02 02:21:00,
2013-02-01 21:32:00,14.0,4.0,-100.00,SSW,200,16.0,21.0,63,-99.99,,,-99.99,,2013-02-02 02:32:00,
2013-02-01 21:42:00,14.0,4.0,-100.00,SSW,195,15.0,17.0,64,-99.99,,,-99.99,,2013-02-02 02:42:00,
2013-02-01 21:52:00,14.0,4.0,-100.00,SSW,195,12.0,17.0,65,-99.99,,,-99.99,,2013-02-02 02:52:00,
2013-02-01 22:02:00,14.0,5.0,-100.00,SSW,195,11.0,17.0,66,-99.99,,,-99.99,,2013-02-02 03:02:00,
2013-02-01 22:11:00,14.0,5.0,-100.00,SSW,195,12.0,17.0,65,-99.99,,,-99.99,,2013-02-02 03:11:00,
2013-02-01 22:22:00,14.0,4.0,-100.00,South,190,13.0,16.0,63,-99.99,,,-99.99,,2013-02-02 03:22:00,
2013-02-01 22:32:00,14.0,4.0,-100.00,South,180,14.0,19.0,62,-99.99,,,-99.99,,2013-02-02 03:32:00,
2013-02-01 22:42:00,14.0,4.0,-100.00,South,190,16.0,21.0,61,-99.99,,,-99.99,,2013-02-02 03:42:00,
2013-02-01 22:52:00,14.0,4.0,-100.00,South,190,12.0,19.0,63,-99.99,,,-99.99,,2013-02-02 03:52:00,
2013-02-01 23:02:00,14.0,4.0,-100.00,South,185,9.0,15.0,65,-99.99,,,-99.99,,2013-02-02 04:02:00,
2013-02-01 23:11:00,14.0,4.0,-100.00,South,185,9.0,12.0,65,-99.99,,,-99.99,,2013-02-02 04:11:00,
2013-02-01 23:21:00,14.0,5.0,-100.00,South,185,9.0,12.0,66,-99.99,,,-99.99,,2013-02-02 04:21:00,
2013-02-01 23:32:00,14.0,5.0,-100.00,South,180,7.0,11.0,67,-99.99,,,-99.99,,2013-02-02 04:32:00,
2013-02-01 23:42:00,14.0,5.0,-100.00,SSE,165,7.0,11.0,68,-99.99,,,-99.99,,2013-02-02 04:42:00,
2013-02-01 23:52:00,14.0,5.0,-100.00,SSE,165,7.0,11.0,68,-99.99,,,-99.99,,2013-02-02 04:52:00,